Theta_e
314 313 314 316 317 317 318 318 317 317 317 317 318 319 319 319 318 318 318 319 320 320 320 322 322 322 322 324 325 325 325 325 325 325 321 316 315 315 315 315 315 315 315 315
316 315 314 316 316 314 317 317 316 316 316 315 316 316 314 315 316 316 318 318 319 320 320 320 321 321 322 321 322 323 324 324 324 324 324 324 320 317 316 316 315 315 316 317
316 317 317 315 313 316 315 316 316 318 317 316 317 317 316 317 317 317 318 319 320 320 320 321 320 321 322 321 321 322 322 322 323 324 324 324 324 322 320 318 317 317 318 320
314 314 316 312 314 315 314 315 315 315 314 315 315 316 316 317 318 318 319 319 318 319 320 321 321 321 321 322 321 321 322 322 323 323 324 324 323 323 322 321 321 322 322 322
316 315 313 312 311 312 315 314 316 316 317 317 315 314 314 315 316 317 317 317 318 317 318 318 319 320 320 321 322 322 322 322 323 324 324 324 324 324 323 322 323 322 322 322
312 315 315 311 312 315 313 315 315 316 318 317 317 318 317 316 316 316 316 317 318 318 318 318 318 318 319 319 322 322 322 323 324 324 325 325 324 323 322 323 323 321 321 320
312 313 314 312 312 316 315 315 314 313 315 317 317 316 315 316 317 317 318 318 318 318 319 318 318 317 317 320 323 323 323 323 324 324 324 323 323 322 322 321 320 319 318 318
312 313 313 310 315 315 314 314 312 312 312 315 315 315 315 316 317 316 315 319 319 319 319 318 317 317 319 322 324 324 324 324 324 322 323 322 321 322 321 320 320 318 317 313
313 313 310 311 311 309 310 312 312 312 312 312 314 315 316 316 316 317 316 317 320 321 320 320 320 319 320 322 323 324 323 323 323 324 323 322 321 319 319 317 317 314 310 307
310 310 310 308 308 310 310 310 311 312 312 312 314 315 316 315 316 315 316 316 318 320 321 321 321 322 323 323 323 323 322 321 322 322 321 319 317 314 313 313 312 308 306 304
309 309 309 309 309 308 309 310 311 312 312 313 314 314 314 314 315 313 314 315 316 318 320 319 319 320 321 322 321 322 321 320 320 319 317 316 314 311 308 306 305 306 305 303
309 306 305 306 307 306 306 306 306 306 309 311 312 311 311 311 312 312 312 313 315 317 318 318 319 318 317 319 321 320 318 317 315 313 312 310 308 306 303 303 303 301 300 299
305 304 305 306 306 306 305 304 303 304 304 306 308 310 307 308 307 309 311 313 314 314 316 317 316 316 312 312 314 315 315 313 310 308 307 304 303 303 303 298 298 297 295 293
301 302 305 304 304 303 303 304 301 299 304 299 299 303 303 303 303 304 304 304 305 306 305 307 312 311 308 307 310 311 311 310 308 307 304 302 299 297 295 294 293 290 289 290
295 296 298 300 301 301 300 305 301 303 305 300 298 297 296 302 299 295 296 298 300 301 300 301 304 302 304 305 309 309 307 303 299 297 296 294 293 292 292 291 290 290 288 287
294 295 297 297 296 296 297 300 296 293 295 293 291 292 291 292 293 294 294 295 300 295 292 295 295 293 294 295 297 295 294 293 293 292 291 290 290 290 289 288 287 286 285 284
291 293 292 292 292 291 291 291 291 290 290 287 286 286 289 290 290 290 290 290 291 290 289 290 290 291 291 292 292 291 290 290 290 290 290 288 288 287 286 285 285 283 282 281
287 289 289 289 288 288 287 287 287 286 286 286 287 287 287 287 286 285 285 287 288 288 288 287 288 289 289 289 289 289 289 288 287 287 286 286 285 284 284 283 282 281 279 279
285 285 286 286 286 286 284 283 283 283 283 284 285 285 284 284 284 284 286 287 285 284 283 285 287 287 286 286 287 286 286 286 285 284 283 283 282 281 280 279 278 278 277 276
283 282 282 283 283 283 282 281 282 282 281 283 283 283 282 281 282 282 283 282 280 280 282 284 284 284 284 284 284 284 284 283 282 281 281 280 279 278 277 276 276 275 274 273
281 281 280 280 280 281 281 281 282 281 281 282 283 281 281 280 281 281 281 279 278 280 280 281 282 282 282 282 282 282 281 280 279 278 277 276 275 274 273 272 272 271 270 270
280 280 280 280 280 280 280 281 281 281 281 281 280 280 280 279 279 279 278 277 277 278 279 279 277 276 276 276 276 275 275 274 273 273 272 271 271 270 270 270 270 269 269 269
280 280 280 280 280 280 280 280 280 280 280 280 280 279 279 278 278 278 277 275 275 275 274 273 272 272 272 273 272 272 272 271 271 271 270 270 270 269 269 269 269 268 268 268
280 280 279 280 280 281 280 279 279 279 279 278 278 277 278 277 275 274 273 272 272 272 272 271 271 271 271 271 271 271 270 270 270 270 269 269 269 269 268 268 268 268 268 267
280 280 280 280 280 279 278 278 278 278 277 277 276 275 275 274 274 272 272 271 270 270 270 270 270 270 270 270 270 270 269 269 269 269 268 268 268 268 268 268 268 267 267 267
280 280 280 280 279 278 278 278 278 276 276 275 274 273 273 272 271 271 270 270 270 269 270 269 269 269 269 269 269 269 268 268 268 268 268 268 268 267 267 267 267 267 267 267
279 279 278 278 277 277 276 276 275 274 274 273 273 272 271 270 270 269 269 269 269 269 269 269 268 268 268 268 268 268 268 268 267 267 267 267 267 267 267 267 267 267 267 267
Wind_Speed
6 11 7 8 7 10 10 10 10 6 13 9 13 13 16 19 26 26 25 16 16 15 17 21 21 22 23 24 27 29 32 38 42 42 41 42 41 43 45 42 46 43 39 39
5 10 11 8 10 17 15 10 13 12 14 12 19 18 13 23 24 23 27 27 23 24 21 23 25 25 25 23 24 25 29 31 33 36 40 42 41 42 42 42 42 40 40 38
3 5 7 6 9 8 2 5 4 6 9 10 13 12 13 23 24 26 25 25 27 24 25 20 25 27 27 26 25 25 25 26 28 30 34 37 39 40 42 41 40 42 40 39
1 2 7 3 4 5 6 9 9 7 9 12 17 23 27 28 19 19 23 25 28 28 26 27 27 29 31 31 28 28 28 27 27 28 30 32 35 36 38 38 39 40 37 34
3 6 8 9 7 4 6 8 7 4 10 14 19 15 18 21 20 23 22 18 15 16 17 22 28 31 34 32 33 33 32 31 28 27 28 30 30 30 31 29 28 29 31 31
3 3 5 3 2 3 1 6 5 5 7 10 18 8 7 25 24 21 20 22 20 17 16 17 21 26 31 33 38 35 34 32 30 29 28 27 25 21 20 22 25 26 27 29
4 4 6 9 8 3 2 5 8 4 9 4 3 6 13 23 19 16 15 16 18 18 16 15 15 18 22 29 35 34 33 30 27 25 23 20 17 18 21 23 24 26 26 27
5 4 8 0 2 1 7 9 12 22 19 12 18 19 14 15 23 29 27 15 12 15 13 12 12 14 18 25 28 27 23 20 18 16 15 15 16 18 18 19 19 22 24 26
8 6 2 3 6 14 17 20 22 26 35 29 27 27 28 19 22 23 27 22 15 11 7 3 4 8 15 18 19 16 15 14 12 14 13 13 14 17 21 21 19 23 25 26
0 3 7 9 10 12 21 21 25 27 28 30 26 29 30 22 18 16 17 23 15 10 6 3 6 8 9 12 13 13 14 16 16 15 13 14 14 13 15 18 21 24 28 29
5 7 14 11 13 22 25 23 24 28 20 19 18 21 17 15 11 10 11 13 12 9 7 4 3 5 8 10 11 10 12 13 12 9 11 11 12 13 13 14 17 21 25 25
5 2 4 10 19 16 21 20 20 22 17 9 8 12 12 7 6 8 6 12 8 9 8 1 6 8 10 11 10 12 14 12 10 9 13 12 14 16 16 12 13 13 14 16
2 9 12 9 12 14 19 17 16 15 15 15 12 9 9 7 6 4 3 3 5 5 5 4 5 11 13 14 14 13 10 10 11 13 14 17 20 20 20 17 16 14 12 11
6 8 4 5 8 15 15 15 13 10 14 13 10 9 6 8 8 8 7 6 4 5 10 10 5 4 7 9 13 13 13 13 18 18 19 20 19 18 16 16 19 18 14 9
12 11 12 13 12 13 12 14 13 12 10 12 12 10 9 9 10 12 11 10 9 9 9 9 12 11 10 10 7 10 11 16 16 16 17 17 18 18 17 15 14 12 9 4
16 13 7 8 9 12 12 10 10 10 10 10 10 11 13 14 14 14 13 12 12 17 15 14 14 13 9 8 12 16 19 19 22 24 24 22 19 15 13 11 10 9 7 4
14 12 15 14 13 12 10 8 8 7 7 8 10 11 13 16 21 23 24 24 25 27 25 24 24 20 20 20 23 26 26 23 23 22 19 16 15 13 12 10 9 7 6 4
8 8 9 9 8 6 6 6 6 6 8 10 12 15 20 24 31 32 31 30 31 32 30 26 23 23 23 22 22 22 21 20 18 18 16 14 13 12 11 9 9 8 6 5
8 6 4 4 5 5 7 9 11 12 14 16 21 28 30 31 31 31 29 29 30 30 28 22 21 22 22 20 18 18 18 17 17 16 14 13 11 11 9 8 7 5 3 1
8 9 8 8 9 10 13 14 16 20 23 26 30 31 31 30 29 29 30 34 30 25 21 21 22 22 21 18 16 17 16 15 14 14 12 11 10 9 7 6 4 3 2 2
13 13 16 18 20 19 19 19 23 26 25 26 29 31 30 28 28 28 30 31 24 20 19 19 20 19 17 15 14 14 13 12 11 11 10 10 8 6 5 5 4 3 4 4
16 19 20 22 24 26 24 25 26 27 27 28 28 28 27 28 27 27 26 24 18 15 15 17 18 15 14 12 12 12 12 11 10 10 9 9 7 7 6 6 5 5 5 5
20 21 22 23 25 26 25 25 26 26 26 25 24 23 23 23 21 21 22 18 16 14 14 15 14 13 12 13 13 13 13 13 12 11 11 10 9 8 7 7 7 7 7 7
20 20 21 22 22 24 26 24 23 23 23 22 21 20 18 18 20 20 18 14 13 12 13 15 14 14 14 15 15 15 15 14 13 11 10 9 8 9 8 8 8 8 8 9
16 17 18 18 20 21 19 17 17 16 16 17 17 16 16 16 15 15 12 12 12 12 13 14 14 14 14 14 14 13 13 12 11 10 9 8 8 8 8 8 8 9 9 10
14 15 15 15 15 14 12 11 13 14 13 13 15 14 13 13 12 10 11 11 11 12 12 12 13 12 13 13 12 11 11 10 9 8 8 7 7 8 9 9 10 10 11 11
12 12 12 12 12 11 9 9 9 11 9 9 10 11 9 9 9 9 10 10 11 11 11 11 11 10 10 10 10 9 9 9 8 8 8 8 9 10 10 10 11 11 11 12
Wind_Direction
266 293 281 268 283 302 280 259 250 255 257 248 248 248 245 263 276 282 283 259 248 253 244 234 230 231 239 240 232 228 230 234 238 236 235 237 238 239 244 239 239 243 246 251
226 225 248 267 281 289 266 261 267 264 266 249 257 265 264 268 271 268 266 270 266 250 257 241 234 231 231 240 240 231 229 232 237 239 238 239 238 240 244 244 245 245 245 249
229 226 242 270 245 221 232 228 235 296 305 288 281 271 253 261 268 272 277 268 270 263 252 257 248 238 232 230 235 233 229 232 232 234 237 239 242 244 245 246 249 252 253 254
216 288 235 258 247 215 239 263 244 259 312 304 282 272 276 277 266 280 278 277 273 267 255 255 257 255 244 234 230 232 233 231 232 233 234 238 240 242 246 249 251 253 255 260
224 216 303 293 265 218 207 289 21 357 358 346 325 278 275 285 292 279 275 272 282 280 271 263 254 246 250 243 231 231 232 232 233 235 235 235 238 242 245 250 254 256 260 258
199 203 237 250 125 18 53 263 8 343 314 325 2 34 335 327 320 308 283 283 285 285 290 280 256 249 245 240 231 229 232 233 231 232 236 238 240 245 253 254 254 252 246 249
231 260 276 259 291 348 192 319 306 270 283 291 338 313 330 11 3 333 313 295 298 290 280 273 262 255 245 231 226 226 227 231 233 234 234 237 241 247 247 248 253 253 248 243
210 241 267 36 144 344 333 293 282 316 309 302 315 313 330 350 353 360 2 334 307 290 278 267 249 234 221 220 224 222 224 223 224 227 227 224 229 231 235 235 242 241 239 228
197 205 301 34 5 317 313 299 305 307 302 300 302 307 308 317 311 332 356 357 344 347 296 209 211 232 216 214 215 210 213 201 199 197 206 219 236 238 235 228 236 234 220 201
317 252 263 289 317 9 332 319 314 311 301 297 295 300 317 315 327 343 342 355 354 355 4 342 150 164 172 183 182 174 187 187 182 189 203 222 229 232 232 230 230 220 202 192
262 289 325 292 357 352 337 337 331 326 318 313 314 305 308 305 324 342 2 9 4 359 25 72 98 143 158 161 166 140 191 187 185 192 202 204 212 218 219 218 219 211 200 196
282 23 313 305 326 334 340 338 341 342 347 347 345 330 327 323 331 315 334 359 360 14 33 207 130 147 162 161 156 169 180 177 174 190 200 197 196 180 169 177 179 190 197 197
251 309 298 304 318 318 334 336 334 340 354 358 348 349 341 1 12 13 18 127 134 105 31 317 169 178 166 174 170 167 175 174 182 183 177 173 170 170 169 168 180 180 182 185
342 321 274 309 319 327 332 334 327 336 355 3 18 13 22 38 28 36 48 61 82 125 128 138 148 172 188 188 176 170 179 183 187 179 179 177 171 157 147 140 135 120 120 134
342 329 301 298 296 306 331 339 346 356 346 352 12 27 28 63 56 64 72 84 100 107 98 110 125 127 165 177 192 202 196 179 166 155 149 144 133 124 120 116 114 116 117 115
323 328 325 342 333 321 335 344 357 15 24 27 36 50 58 69 85 86 87 94 102 84 82 89 91 84 93 111 131 130 129 132 133 125 122 123 121 119 114 113 116 116 117 112
337 342 337 345 340 334 355 3 8 18 45 68 75 82 88 92 93 92 94 96 97 95 87 82 84 88 92 101 109 110 111 112 115 117 116 114 111 108 108 111 116 125 137 164
333 321 315 309 317 345 9 37 53 62 75 87 96 102 105 102 100 99 97 98 96 92 90 91 94 95 95 97 100 105 107 108 106 103 105 107 106 110 114 119 124 133 143 165
7 0 351 8 28 44 59 71 82 92 101 109 114 106 104 102 101 101 101 96 90 88 88 93 92 88 86 85 89 93 96 98 98 100 101 101 107 107 110 116 121 127 135 154
49 54 61 73 83 85 91 94 104 106 110 114 112 109 103 98 98 95 92 86 82 84 89 88 88 86 84 82 82 84 85 89 91 94 95 95 94 95 98 98 93 80 50 3
76 82 85 89 92 96 95 101 106 104 106 106 103 100 100 99 96 94 89 86 84 87 85 84 81 80 79 77 76 78 79 81 84 87 87 83 80 77 70 65 52 35 15 354
92 93 94 98 98 99 103 106 106 106 104 101 100 102 101 96 93 90 86 84 81 75 70 66 66 66 70 73 75 75 77 77 75 73 71 71 68 65 58 51 43 35 23 9
100 102 103 101 100 102 103 101 100 100 99 98 98 98 95 95 93 90 85 73 63 57 60 62 60 58 60 66 68 72 74 72 71 71 69 69 66 63 57 48 38 27 15 3
107 104 103 106 108 105 100 100 100 98 99 99 97 96 92 89 85 77 75 71 58 49 58 63 61 61 61 65 67 67 69 69 67 65 61 56 51 45 38 30 20 10 359 349
103 106 106 103 98 96 99 101 101 100 99 98 95 90 84 80 73 75 62 56 53 53 58 62 60 59 60 61 61 60 59 60 58 52 46 40 33 27 18 8 358 352 346 341
105 99 98 97 98 101 102 106 104 103 101 98 94 85 76 70 66 60 54 56 58 59 60 61 58 56 56 54 52 49 46 44 40 34 28 20 12 4 356 351 348 346 344 341
100 101 102 102 101 100 102 104 108 105 96 88 93 89 76 66 58 58 60 57 56 54 53 52 49 46 42 39 36 32 28 24 19 12 5 358 353 349 347 345 344 343 341 338